Location: Newark
(41.8083°N, 72.2500°W)
Time: 10:45:38
(UTC+00:00)

Vanguard 1 Rocket - Pass Details

Date: 07 December 2021
Orbit: 651 x 4224 km, 34.3° (Epoch: 15 January)

Event Time Altitude Azimuth Distance (km) Brightness Sun altitude
Exits shadow 09:37:58 34° 254° (WSW) 3,431 9.8 -26.2°
Maximum altitude 09:45:46 64° 188° (S) 3,221 10.0 -24.8°
Drops below altitude 10° 10:09:02 10° 114° (ESE) 7,316 13.1 -20.5°
Sets 10:15:14 0° 112° (ESE) 8,459 13.9 -19.4°
